This demonstration page uses our WeatherBlox Daily Observations layout. Learn more.

Left ArrowRight Arrow

Hourly Observations for September 4, 2019

Temp ( °F °C ) Dew Point ( °F °C ) Humidity (%) Winds ( mph kmh ) Pressure ( in mb ) Visibility ( mi km ) Precip ( " mm )
12:51 am 00:51 Clear 79 26.1 54 12.2 42 42 Calm 29.78 1009 10 16 0.00 0.00
1:51 am 01:51 Clear 75 23.9 54 12.2 48 48 NNE 5 7 29.79 1009 10 16 0.00 0.00
2:51 am 02:51 undefined 75 23.9 53 11.7 46 46 SSE 5 7 29.79 1009 10 16 0.00 0.00
3:51 am 03:51 Clear 73 22.8 54 12.2 51 51 Calm 29.79 1009 10 16 0.00 0.00
4:51 am 04:51 Clear 80 26.7 50 10 35 35 Calm 29.80 1009 10 16 0.00 0.00
5:51 am 05:51 Clear 77 25 52 11.1 42 42 SSE 10 17 29.83 1010 10 16 0.00 0.00
6:51 am 06:51 Sunny 80 26.7 51 10.6 37 37 ESE 9 15 29.86 1011 10 16 0.00 0.00
7:51 am 07:51 Sunny 84 28.9 52 11.1 33 33 SE 12 19 29.87 1011 10 16 0.00 0.00
8:51 am 08:51 Sunny 90 32.2 48 8.9 24 24 ESE 9 15 29.88 1012 10 16 0.00 0.00
9:51 am 09:51 Sunny 92 33.3 49 9.4 23 23 S 8 13 29.88 1012 10 16 0.00 0.00
10:51 am 10:51 Sunny 96 35.6 46 7.8 18 18 S 14 22 29.86 1011 10 16 0.00 0.00
11:03 am 11:03 Mostly Sunny 96 35.6 46 7.8 18 18 VRB 7 11 29.75 1008 10 16 0.00 0.00
11:51 am 11:51 Partly Cloudy 100 37.8 44 6.7 15 15 SE 13 20 29.83 1010 10 16 0.00 0.00
12:51 pm 12:51 Sunny 100 37.8 43 6.1 14 14 SSE 14 22 29.82 1010 10 16 0.00 0.00
1:51 pm 13:51 Sunny 101 38.3 43 6.1 14 14 SE 15 24 29.81 1010 10 16 0.00 0.00
2:51 pm 14:51 Sunny 102 38.9 41 5 12 12 SE 21 33 29.78 1009 10 16 0.00 0.00
3:51 pm 15:51 Sunny 101 38.3 39 3.9 12 12 SSE 12 19 29.77 1008 10 16 0.00 0.00
4:51 pm 16:51 Sunny 100 37.8 39 3.9 12 12 SSE 17 28 29.75 1008 10 16 0.00 0.00
5:51 pm 17:51 Sunny 97 36.1 39 3.9 13 13 SSE 14 22 29.77 1008 10 16 0.00 0.00
6:51 pm 18:51 Clear 94 34.4 40 4.4 15 15 SE 16 26 29.79 1009 10 16 0.00 0.00
7:51 pm 19:51 Clear 92 33.3 40 4.4 16 16 SE 10 17 29.83 1010 10 16 0.00 0.00
8:51 pm 20:51 Clear 88 31.1 41 5 19 19 SE 6 9 29.86 1011 10 16 0.00 0.00
9:51 pm 21:51 Clear 84 28.9 43 6.1 24 24 E 8 13 29.88 1012 10 16 0.00 0.00
10:51 pm 22:51 Clear 84 28.9 43 6.1 24 24 SE 6 9 29.88 1012 10 16 0.00 0.00
11:51 pm 23:51 Clear 83 28.3 43 6.1 24 24 SSE 8 13 29.88 1012 10 16 0.00 0.00

Powered by AerisWeather